Time,TemperatureF,DewpointF,PressureIn,WindDirection,WindDirectionDegrees,WindSpeedMPH,WindSpeedGustMPH,Humidity,HourlyPrecipIn,Conditions,Clouds,dailyrainin,SoftwareType,DateUTC
2013-03-09 00:09:00,32.7,23.0,30.18,SSE,157,1.7,-999.0,67,-99.99,,,0.00,Acu-Link.com,2013-03-09 05:09:00,
2013-03-09 00:24:00,31.8,22.8,30.17,WNW,292,1.7,-999.0,69,-99.99,,,0.00,Acu-Link.com,2013-03-09 05:24:00,
2013-03-09 00:39:00,32.4,23.0,30.18,North,0,3.7,-999.0,68,-99.99,,,0.00,Acu-Link.com,2013-03-09 05:39:00,
2013-03-09 00:55:00,32.5,22.8,30.18,NNE,22,2.7,-999.0,67,-99.99,,,0.00,Acu-Link.com,2013-03-09 05:55:00,
2013-03-09 01:10:00,31.3,22.3,30.18,NNE,22,3.2,-999.0,69,-99.99,,,0.00,Acu-Link.com,2013-03-09 06:10:00,
2013-03-09 01:25:00,30.9,22.3,30.18,NNW,337,2.7,-999.0,70,-99.99,,,0.00,Acu-Link.com,2013-03-09 06:25:00,
2013-03-09 01:40:00,30.6,23.0,30.18,SSE,157,2.7,-999.0,73,-99.99,,,0.00,Acu-Link.com,2013-03-09 06:40:00,
2013-03-09 01:55:00,29.7,22.4,30.17,South,180,1.7,-999.0,74,-99.99,,,0.00,Acu-Link.com,2013-03-09 06:55:00,
2013-03-09 02:11:00,29.5,22.3,30.17,ESE,112,3.2,-999.0,74,-99.99,,,0.00,Acu-Link.com,2013-03-09 07:11:00,
2013-03-09 02:26:00,30.9,22.6,30.15,ENE,67,4.2,-999.0,71,-99.99,,,0.00,Acu-Link.com,2013-03-09 07:26:00,
2013-03-09 02:41:00,31.5,22.9,30.15,ENE,67,2.7,-999.0,70,-99.99,,,0.00,Acu-Link.com,2013-03-09 07:41:00,
2013-03-09 02:57:00,30.7,22.4,30.15,East,90,2.2,-999.0,71,-99.99,,,0.00,Acu-Link.com,2013-03-09 07:57:00,
2013-03-09 03:12:00,30.7,22.4,30.14,NE,45,3.7,-999.0,71,-99.99,,,0.00,Acu-Link.com,2013-03-09 08:12:00,
2013-03-09 03:27:00,29.5,22.3,30.15,NE,45,2.2,-999.0,74,-99.99,,,0.00,Acu-Link.com,2013-03-09 08:27:00,
2013-03-09 03:42:00,27.1,22.1,30.15,East,90,0.0,-999.0,81,-99.99,,,0.00,Acu-Link.com,2013-03-09 08:42:00,
2013-03-09 03:57:00,28.8,22.2,30.15,South,180,1.1,-999.0,76,-99.99,,,0.00,Acu-Link.com,2013-03-09 08:57:00,
2013-03-09 04:12:00,26.6,21.9,30.16,NW,315,0.0,-999.0,82,-99.99,,,0.00,Acu-Link.com,2013-03-09 09:12:00,
2013-03-09 04:27:00,25.0,21.4,30.16,SW,225,1.1,-999.0,86,-99.99,,,0.00,Acu-Link.com,2013-03-09 09:27:00,
2013-03-09 04:42:00,24.6,21.3,30.16,NE,45,1.1,-999.0,87,-99.99,,,0.00,Acu-Link.com,2013-03-09 09:42:00,
2013-03-09 04:57:00,27.0,22.3,30.16,ENE,67,3.2,-999.0,82,-99.99,,,0.00,Acu-Link.com,2013-03-09 09:57:00,
2013-03-09 05:13:00,29.1,22.5,30.16,South,180,2.2,-999.0,76,-99.99,,,0.00,Acu-Link.com,2013-03-09 10:13:00,
2013-03-09 05:28:00,25.7,21.3,30.16,ESE,112,2.2,-999.0,83,-99.99,,,0.00,Acu-Link.com,2013-03-09 10:28:00,
2013-03-09 05:43:00,26.6,21.9,30.16,East,90,2.2,-999.0,82,-99.99,,,0.00,Acu-Link.com,2013-03-09 10:43:00,
2013-03-09 05:59:00,30.4,22.8,30.16,North,0,2.7,-999.0,73,-99.99,,,0.00,Acu-Link.com,2013-03-09 10:59:00,
2013-03-09 06:14:00,30.7,23.1,30.16,NE,45,2.7,-999.0,73,-99.99,,,0.00,Acu-Link.com,2013-03-09 11:14:00,
2013-03-09 06:29:00,30.7,23.1,30.17,ENE,67,2.2,-999.0,73,-99.99,,,0.00,Acu-Link.com,2013-03-09 11:29:00,
2013-03-09 06:44:00,30.6,23.0,30.17,ESE,112,3.2,-999.0,73,-99.99,,,0.00,Acu-Link.com,2013-03-09 11:44:00,
2013-03-09 07:00:00,30.9,23.0,30.17,NNE,22,3.2,-999.0,72,-99.99,,,0.00,Acu-Link.com,2013-03-09 12:00:00,
2013-03-09 07:15:00,31.1,23.1,30.17,East,90,3.2,-999.0,72,-99.99,,,0.00,Acu-Link.com,2013-03-09 12:15:00,
2013-03-09 07:30:00,28.8,22.5,30.19,ESE,112,0.0,-999.0,77,-99.99,,,0.00,Acu-Link.com,2013-03-09 12:30:00,
2013-03-09 07:45:00,31.8,23.5,30.20,SW,225,0.0,-999.0,71,-99.99,,,0.00,Acu-Link.com,2013-03-09 12:45:00,
2013-03-09 08:01:00,33.1,24.4,30.21,SE,135,1.7,-999.0,70,-99.99,,,0.00,Acu-Link.com,2013-03-09 13:01:00,
2013-03-09 08:16:00,33.3,25.3,30.21,ESE,112,0.0,-999.0,72,-99.99,,,0.00,Acu-Link.com,2013-03-09 13:16:00,
2013-03-09 08:31:00,37.6,25.0,30.20,ENE,67,3.2,-999.0,60,-99.99,,,0.00,Acu-Link.com,2013-03-09 13:31:00,
2013-03-09 08:47:00,37.9,24.9,30.20,NE,45,4.2,-999.0,59,-99.99,,,0.00,Acu-Link.com,2013-03-09 13:47:00,
2013-03-09 09:02:00,38.8,25.7,30.20,ENE,67,5.8,-999.0,59,-99.99,,,0.00,Acu-Link.com,2013-03-09 14:02:00,
2013-03-09 09:17:00,38.7,25.6,30.20,NNW,337,3.7,-999.0,59,-99.99,,,0.00,Acu-Link.com,2013-03-09 14:17:00,
2013-03-09 09:32:00,38.8,26.1,30.20,NNW,337,8.3,-999.0,60,-99.99,,,0.00,Acu-Link.com,2013-03-09 14:32:00,
2013-03-09 09:47:00,40.1,26.5,30.21,ESE,112,5.3,-999.0,58,-99.99,,,0.00,Acu-Link.com,2013-03-09 14:47:00,
2013-03-09 10:03:00,40.5,26.1,30.20,SSE,157,4.2,-999.0,56,-99.99,,,0.00,Acu-Link.com,2013-03-09 15:03:00,
2013-03-09 10:18:00,41.2,26.3,30.20,NE,45,3.7,-999.0,55,-99.99,,,0.00,Acu-Link.com,2013-03-09 15:18:00,
2013-03-09 10:33:00,42.4,26.5,30.18,East,90,5.8,-999.0,53,-99.99,,,0.00,Acu-Link.com,2013-03-09 15:33:00,
2013-03-09 10:48:00,42.3,26.9,30.10,East,90,3.2,-999.0,54,-99.99,,,0.00,Acu-Link.com,2013-03-09 15:48:00,
2013-03-09 11:03:00,43.0,26.6,30.06,NNW,337,2.7,-999.0,52,-99.99,,,0.00,Acu-Link.com,2013-03-09 16:03:00,
2013-03-09 11:18:00,44.6,28.1,30.05,NNW,337,4.2,-999.0,52,-99.99,,,0.00,Acu-Link.com,2013-03-09 16:18:00,
2013-03-09 11:34:00,45.0,26.5,30.04,WNW,292,6.3,-999.0,48,-99.99,,,0.00,Acu-Link.com,2013-03-09 16:34:00,
2013-03-09 11:49:00,46.4,28.8,30.04,SW,225,3.7,-999.0,50,-99.99,,,0.00,Acu-Link.com,2013-03-09 16:49:00,
2013-03-09 12:04:00,46.9,27.7,30.04,East,90,3.7,-999.0,47,-99.99,,,0.00,Acu-Link.com,2013-03-09 17:04:00,
2013-03-09 12:19:00,47.1,27.4,30.03,NE,45,3.7,-999.0,46,-99.99,,,0.00,Acu-Link.com,2013-03-09 17:19:00,
2013-03-09 12:34:00,48.2,30.9,30.03,NW,315,5.8,-999.0,51,-99.99,,,0.00,Acu-Link.com,2013-03-09 17:34:00,
2013-03-09 12:50:00,50.0,29.0,30.02,East,90,6.8,-999.0,44,-99.99,,,0.00,Acu-Link.com,2013-03-09 17:50:00,
2013-03-09 13:05:00,49.8,30.4,30.02,NE,45,5.3,-999.0,47,-99.99,,,0.00,Acu-Link.com,2013-03-09 18:05:00,
2013-03-09 13:20:00,49.8,30.9,30.02,NNE,22,3.7,-999.0,48,-99.99,,,0.00,Acu-Link.com,2013-03-09 18:20:00,
2013-03-09 13:35:00,50.2,29.7,30.03,NNE,22,4.2,-999.0,45,-99.99,,,0.00,Acu-Link.com,2013-03-09 18:35:00,
2013-03-09 13:50:00,50.2,29.1,30.03,East,90,5.3,-999.0,44,-99.99,,,0.00,Acu-Link.com,2013-03-09 18:50:00,
2013-03-09 14:05:00,50.5,31.0,30.03,East,90,3.2,-999.0,47,-99.99,,,0.00,Acu-Link.com,2013-03-09 19:05:00,
2013-03-09 14:20:00,51.1,30.0,30.03,East,90,5.3,-999.0,44,-99.99,,,0.00,Acu-Link.com,2013-03-09 19:20:00,
2013-03-09 14:35:00,51.3,29.6,30.02,NNE,22,4.7,-999.0,43,-99.99,,,0.00,Acu-Link.com,2013-03-09 19:35:00,
2013-03-09 14:51:00,51.8,30.6,30.01,ENE,67,4.2,-999.0,44,-99.99,,,0.00,Acu-Link.com,2013-03-09 19:51:00,
2013-03-09 15:06:00,52.2,30.4,30.02,NNW,337,3.2,-999.0,43,-99.99,,,0.00,Acu-Link.com,2013-03-09 20:06:00,
2013-03-09 15:21:00,52.5,30.7,30.02,ESE,112,4.7,-999.0,43,-99.99,,,0.00,Acu-Link.com,2013-03-09 20:21:00,
2013-03-09 15:36:00,52.5,30.1,30.05,North,0,3.7,-999.0,42,-99.99,,,0.00,Acu-Link.com,2013-03-09 20:36:00,
2013-03-09 15:51:00,52.5,30.7,30.07,ENE,67,3.7,-999.0,43,-99.99,,,0.00,Acu-Link.com,2013-03-09 20:51:00,
2013-03-09 16:07:00,53.8,30.1,30.08,ENE,67,4.7,-999.0,40,-99.99,,,0.00,Acu-Link.com,2013-03-09 21:07:00,
2013-03-09 16:22:00,54.7,29.6,30.09,South,180,2.2,-999.0,38,-99.99,,,0.00,Acu-Link.com,2013-03-09 21:22:00,
2013-03-09 16:37:00,55.6,31.0,30.09,NNE,22,2.7,-999.0,39,-99.99,,,0.00,Acu-Link.com,2013-03-09 21:37:00,
2013-03-09 16:52:00,54.3,29.2,30.10,SSE,157,2.7,-999.0,38,-99.99,,,0.00,Acu-Link.com,2013-03-09 21:52:00,
2013-03-09 17:07:00,53.6,28.6,30.10,SSE,157,3.7,-999.0,38,-99.99,,,0.00,Acu-Link.com,2013-03-09 22:07:00,
2013-03-09 17:23:00,52.3,29.3,30.10,West,270,2.2,-999.0,41,-99.99,,,0.00,Acu-Link.com,2013-03-09 22:23:00,
2013-03-09 17:38:00,51.3,28.4,30.11,SE,135,1.1,-999.0,41,-99.99,,,0.00,Acu-Link.com,2013-03-09 22:38:00,
2013-03-09 17:53:00,49.8,28.2,30.12,South,180,2.7,-999.0,43,-99.99,,,0.00,Acu-Link.com,2013-03-09 22:53:00,
2013-03-09 18:09:00,48.2,26.8,30.13,SW,225,2.2,-999.0,43,-99.99,,,0.00,Acu-Link.com,2013-03-09 23:09:00,
2013-03-09 18:24:00,47.1,25.8,30.14,SSW,202,2.2,-999.0,43,-99.99,,,0.00,Acu-Link.com,2013-03-09 23:24:00,
2013-03-09 18:39:00,45.3,25.2,30.14,SSW,202,1.7,-999.0,45,-99.99,,,0.00,Acu-Link.com,2013-03-09 23:39:00,
2013-03-09 18:55:00,43.5,25.6,30.15,ESE,112,0.0,-999.0,49,-99.99,,,0.00,Acu-Link.com,2013-03-09 23:55:00,
2013-03-09 19:10:00,41.2,25.4,30.15,ESE,112,0.0,-999.0,53,-99.99,,,0.00,Acu-Link.com,2013-03-10 00:10:00,
2013-03-09 19:25:00,39.7,25.7,30.15,WSW,247,0.0,-999.0,57,-99.99,,,0.00,Acu-Link.com,2013-03-10 00:25:00,
2013-03-09 19:40:00,38.3,26.4,30.15,SE,135,1.7,-999.0,62,-99.99,,,0.00,Acu-Link.com,2013-03-10 00:40:00,
2013-03-09 19:56:00,37.0,27.1,30.16,SSE,157,2.7,-999.0,67,-99.99,,,0.00,Acu-Link.com,2013-03-10 00:56:00,
2013-03-09 20:11:00,36.0,26.5,30.16,SE,135,1.1,-999.0,68,-99.99,,,0.00,Acu-Link.com,2013-03-10 01:11:00,
2013-03-09 20:26:00,35.1,26.7,30.16,SE,135,3.2,-999.0,71,-99.99,,,0.00,Acu-Link.com,2013-03-10 01:26:00,
2013-03-09 20:42:00,36.0,26.1,30.16,ESE,112,2.7,-999.0,67,-99.99,,,0.00,Acu-Link.com,2013-03-10 01:42:00,
2013-03-09 20:57:00,36.0,26.1,30.16,NNE,22,0.0,-999.0,67,-99.99,,,0.00,Acu-Link.com,2013-03-10 01:57:00,
2013-03-09 21:12:00,35.1,26.7,30.16,SSW,202,0.0,-999.0,71,-99.99,,,0.00,Acu-Link.com,2013-03-10 02:12:00,
2013-03-09 21:27:00,33.8,26.4,30.17,SE,135,2.7,-999.0,74,-99.99,,,0.00,Acu-Link.com,2013-03-10 02:27:00,
2013-03-09 21:42:00,34.0,26.6,30.18,ESE,112,1.1,-999.0,74,-99.99,,,0.00,Acu-Link.com,2013-03-10 02:42:00,
2013-03-09 21:58:00,32.7,26.3,30.18,SSE,157,0.0,-999.0,77,-99.99,,,0.00,Acu-Link.com,2013-03-10 02:58:00,
2013-03-09 22:13:00,32.7,26.0,30.18,SSE,157,2.2,-999.0,76,-99.99,,,0.00,Acu-Link.com,2013-03-10 03:13:00,
2013-03-09 22:28:00,32.7,26.3,30.18,SSE,157,0.0,-999.0,77,-99.99,,,0.00,Acu-Link.com,2013-03-10 03:28:00,
2013-03-09 22:43:00,32.2,26.4,30.18,SSW,202,1.7,-999.0,79,-99.99,,,0.00,Acu-Link.com,2013-03-10 03:43:00,
2013-03-09 22:59:00,31.8,26.0,30.19,South,180,2.2,-999.0,79,-99.99,,,0.00,Acu-Link.com,2013-03-10 03:59:00,
2013-03-09 23:14:00,31.6,26.2,30.19,SSW,202,2.7,-999.0,80,-99.99,,,0.00,Acu-Link.com,2013-03-10 04:14:00,
2013-03-09 23:29:00,31.1,26.0,30.19,SSE,157,2.2,-999.0,81,-99.99,,,0.00,Acu-Link.com,2013-03-10 04:29:00,
2013-03-09 23:44:00,31.8,26.0,30.19,South,180,2.7,-999.0,79,-99.99,,,0.00,Acu-Link.com,2013-03-10 04:44:00,